This demonstration page uses our WeatherBlox Daily Observations layout. Learn more.

Left ArrowRight Arrow

34.74481, -87.66753

Hourly Observations for February 15, 2018

Temp ( °F °C ) Dew Point ( °F °C ) Humidity (%) Winds ( mph kmh ) Pressure ( in mb ) Visibility ( mi km ) Precip ( " mm )
12:53 am 00:53 Cloudy 65 18.3 62 16.7 90 90 SSW 12 19 30.16 1022 9 14 0.00 0.00
1:53 am 01:53 Cloudy 65 18.3 62 16.7 90 90 S 10 17 30.16 1021 8 13 0.00 0.00
2:19 am 02:19 Cloudy 65 18.3 62 16.7 90 90 SSW 10 17 30.12 1020 8 13 0.00 0.00
2:53 am 02:53 Cloudy 65 18.3 62 16.7 90 90 SSW 10 17 30.14 1021 7 11 0.00 0.00
3:40 am 03:40 Cloudy 65 18.3 62 16.7 90 90 SSW 7 11 30.12 1020 8 13 0.00 0.00
3:53 am 03:53 Cloudy 65 18.3 62 16.7 90 90 SSW 8 13 30.14 1021 9 14 0.00 0.00
4:16 am 04:16 Cloudy 66 18.9 62 16.7 87 87 SSW 9 15 30.12 1020 10 16 0.00 0.00
4:53 am 04:53 Cloudy 66 18.9 62 16.7 87 87 SW 12 19 30.14 1021 10 16 0.00 0.00
5:53 am 05:53 Mostly Cloudy 67 19.4 61 16.1 81 81 SW 14 22 30.14 1021 10 16 0.00 0.00
6:53 am 06:53 Mostly Cloudy 66 18.9 61 16.1 84 84 SSW 10 17 30.14 1021 10 16 0.00 0.00
7:53 am 07:53 Mostly Cloudy 67 19.4 61 16.1 81 81 SW 13 20 30.17 1022 10 16 0.00 0.00
8:53 am 08:53 Mostly Cloudy 69 20.6 62 16.7 78 78 SW 16 26 30.16 1021 10 16 0.00 0.00
9:53 am 09:53 Cloudy 70 21.1 62 16.7 76 76 SW 18 30 30.16 1021 10 16 0.00 0.00
10:53 am 10:53 Cloudy 71 21.7 61 16.1 71 71 SW 20 31 30.14 1021 10 16 0.00 0.00
11:53 am 11:53 Mostly Cloudy 73 22.8 61 16.1 66 66 WSW 23 37 30.11 1020 10 16 0.00 0.00
12:12 pm 12:12 Mostly Cloudy 73 22.8 61 16.1 66 66 SW 18 30 30.09 1019 10 16 0.00 0.00
12:19 pm 12:19 Cloudy 74 23.3 61 16.1 64 64 SW 21 33 30.09 1019 10 16 0.00 0.00
12:32 pm 12:32 Mostly Cloudy 73 22.8 60 15.6 64 64 SW 22 35 30.06 1018 10 16 0.00 0.00
12:53 pm 12:53 Mostly Cloudy 73 22.8 61 16.1 66 66 SW 18 30 30.07 1018 10 16 0.00 0.00
1:53 pm 13:53 Mostly Cloudy 76 24.4 60 15.6 58 58 SW 21 33 30.02 1017 10 16 0.00 0.00
2:53 pm 14:53 Mostly Sunny 77 25 60 15.6 56 56 SSW 22 35 30.00 1016 10 16 0.00 0.00
3:53 pm 15:53 Partly Cloudy 76 24.4 59 15 56 56 SW 20 31 29.99 1016 10 16 0.00 0.00
4:53 pm 16:53 Mostly Cloudy 75 23.9 60 15.6 60 60 SW 15 24 30.00 1016 10 16 0.00 0.00
5:53 pm 17:53 Partly Cloudy 73 22.8 59 15 62 62 SSW 12 19 29.99 1016 10 16 0.00 0.00
6:53 pm 18:53 Clear 70 21.1 59 15 68 68 S 9 15 29.99 1016 10 16 0.00 0.00
7:53 pm 19:53 Clear 69 20.6 59 15 70 70 S 8 13 30.00 1016 10 16 0.00 0.00
8:53 pm 20:53 Clear 69 20.6 59 15 70 70 S 8 13 29.99 1016 10 16 0.00 0.00
9:53 pm 21:53 Mostly Cloudy 69 20.6 59 15 70 70 SW 7 11 30.00 1016 10 16 0.00 0.00
10:53 pm 22:53 Clear 68 20 59 15 73 73 SSW 9 15 29.99 1016 10 16 0.00 0.00
11:53 pm 23:53 Mostly Cloudy 67 19.4 59 15 76 76 SW 8 13 30.00 1016 10 16 0.00 0.00

Powered by AerisWeather